Regional Weather Roundup
Issued by NWS

Home | Current Version | Previous Version | Graphics & Text | Print | Product List | Glossary Off
Versions: 1 2 3 4 5 6 7 8 9 10 11 12 13 14 15 16 17 18 19 20 21 22 23 24 25 26 27 28 29 30 31 32 33 34 35 36 37 38 39 40 41 42 43 44 45 46 47 48 49 50

000
ASUS43 KFSD 272310
RWRSD

WEATHER ROUNDUP FOR SOUTH DAKOTA
NATIONAL WEATHER SERVICE SIOUX FALLS SD
600 PM CDT MON JUL 27 2015

NOTE: "FAIR" INDICATES FEW OR NO CLOUDS BELOW 12,000 FEET WITH NO
SIGNIFICANT WEATHER AND/OR OBSTRUCTIONS TO VISIBILITY.


SDZ001>005-009-010-012>017-280000-
NORTHWEST AND NORTH CENTRAL SOUTH DAKOTA

CITY           SKY/WX    TMP DP  RH WIND       PRES   REMARKS
BUFFALO          N/A     87  63  44 SE17G28   29.58R
FAITH            N/A     89  59  36 SE17G30   29.65R
MOBRIDGE       SUNNY     94  69  44 SE24G35   29.64F HX  99
$$

SDZ012>016-024>037-041>051-057-063-072>074-280000-
SOUTHWEST AND SOUTH CENTRAL SOUTH DAKOTA

CITY           SKY/WX    TMP DP  RH WIND       PRES   REMARKS
RAPID CTY ARPT MOSUNNY   86  65  49 SE10      29.59F
PIERRE         SUNNY     94  66  39 SE29G38   29.62F HX  97
CUSTER         PTSUNNY   70  52  52 N15G29    29.81R THUNDER
ELLSWORTH AFB  PTSUNNY   90  63  40 CALM      29.62  THUNDER
PHILIP         SUNNY     92  67  43 SE23G32   29.61F HX  95
PINE RIDGE     SUNNY     93  61  34 SE20G29   29.66F
SPEARFISH      LGT RAIN  75  50  41 SE20G26   29.71F
WINNER         FAIR      93  66  40 SE18G29   29.69F HX  96
$$

SDZ004>011-016>023-039-040-280000-
NORTHEAST SOUTH DAKOTA

CITY           SKY/WX    TMP DP  RH WIND       PRES   REMARKS
ABERDEEN       SUNNY     90  73  57 S18G26    29.72F HX  98
WATERTOWN      SUNNY     86  66  51 SE14      29.80F
BROOKINGS      SUNNY     84  70  61 SE16      29.83F
SISSETON         N/A     84  75  74 SE17      29.76F
$$

SDZ017-020-022-023-036>040-048>070-280000-
SOUTHEAST SOUTH DAKOTA

CITY           SKY/WX    TMP DP  RH WIND       PRES   REMARKS
SIOUX FALLS    MOSUNNY   85  71  63 S17       29.80F
HURON          SUNNY     87  74  64 SE14      29.73F HX  95
CHAMBERLAIN    MOSUNNY   88  72  59 SE20G28   29.69F HX  95
MITCHELL       SUNNY     87  77  72 S15G25    29.74F HX  99
YANKTON        SUNNY     90  66  45 S18       29.76S
$$

ABBREVIATIONS USED IN REMARKS
   TC - TEMPERATURE IN CELSIUS
  WCI - WIND CHILL INDEX
   HX - HEAT INDEX
  VSB - VISIBILITY




USA.gov is the U.S. government's official web portal to all federal, state and local government web resources and services.